Flag for Mexico Weather past 2 weeks in Merida, Yucatán, Mexico

Now
91 °F

Broken clouds.


Feels Like: 96 °F
Forecast: 74 / 94 °F
Wind: 10 mph from North

Location: Aerop. Internacional Merida - Yuc

Current Time: Jul 24, 2014 at 6:00:28 PM

Latest Report: Jul 24, 2014 at 4:53 PM


Visibility: 7 mi

Pressure: 29.92 "Hg

Humidity: 46%

Dew point: 68 °F

Location of MeridaLocation

Historic Weather in Merida — Graph

°F

Merida temperature yesterday

Maximum temperature yesterday: 93 °F (at 2:47 PM)
Minimum temperature yesterday: 73 °F (at 2:53 AM)
Average temperature yesterday: 81 °F

Past Weeks' High & Low Weather Summary

 TemperatureHumidityPressure
High95 °F (Jul 19, 3:49 PM)100% (Jul 10, 6:47 AM)30.10 "Hg (Jul 10, 6:47 AM)
Low34 °F (Jul 10, 6:20 PM)36% (Jul 24, 2:46 PM)29.89 "Hg (Jul 17, 5:52 PM)
Average81 °F74%30.00 "Hg
* Reported Jul 9 4:52 PM — Jul 24 4:53 PM, Merida, Weather by CustomWeather, © 2014

Note: Actual official high and low records may vary slightly from our data, if they occured in-between our weather recording intervals... More about our weather records

Advertising

Merida weather history for previous 24 hours

 ConditionsComfort  
Time TempWeatherWind HumidityBarometerVisibility
4:53 PM
Jul 24
91 °FBroken clouds.10 mph46%29.92 "Hg7 mi
2:46 PM93 °FBroken clouds.17 mph36%29.95 "Hg7 mi
1:45 PM93 °FScattered clouds.10 mph44%29.97 "Hg7 mi
12:50 PM91 °FScattered clouds.12 mph49%30.00 "Hg7 mi
10:48 AM88 °FScattered clouds.6 mph59%30.02 "Hg7 mi
8:44 AM82 °FScattered clouds.7 mph74%30.02 "Hg7 mi
7:45 AM77 °FScattered clouds.7 mph83%30.02 "Hg7 mi
6:47 AM73 °FPassing clouds.3 mph94%29.99 "Hg7 mi
5:45 AM73 °FPassing clouds.No wind89%29.99 "Hg7 mi
3:46 AM75 °FPassing clouds.6 mph83%29.99 "Hg7 mi
2:45 AM75 °FClear.6 mph78%29.98 "Hg7 mi
1:45 AM75 °FClear.6 mph78%30.00 "Hg7 mi
12:46 AM75 °FClear.7 mph78%30.01 "Hg7 mi
11:45 PM
Jul 23
77 °FClear.7 mph69%30.01 "Hg7 mi
10:46 PM79 °FClear.8 mph70%30.01 "Hg7 mi
9:49 PM79 °FClear.13 mph70%30.00 "Hg7 mi
8:50 PM81 °FClear.5 mph70%29.98 "Hg7 mi
7:49 PM82 °FBroken clouds.8 mph66%29.97 "Hg7 mi
Weather by CustomWeather, © 2014

See weather overviewHow to use our weather pages